Back to catalog

STARLINK-32809

AliveCommunicationsVLEO
NORAD 62849·PAYLOAD·🇺🇸 United States

Launched Jan 27, 2025 from Cape Canaveral Space Force Station

Loading…

Next Passes (next 24 hours)

TLE

FreshSource: CelesTrak SupGP

Epoch: Sep 14, 2026, 13:53 UTC

1 62849C 25019W   26257.57895833  .00038593  00000+0  13984-2 0  2577
2 62849  42.9996 101.9272 0001562 262.2020  60.1011 15.27545080    17

Track STARLINK-32809 in real time with AllMySat

Download on the App Store